Regional Weather Roundup
Issued by NWS New Orleans/Baton Rouge, LA

Home | Current Version | Previous Version | Graphics & Text | Print | Product List | Glossary On
Versions: 1 2 3 4 5 6 7 8 9 10 11 12 13 14 15 16 17 18 19 20 21 22 23 24 25 26 27 28 29 30 31 32 33 34 35 36 37 38 39 40 41 42 43 44 45 46 47 48 49 50
310
ASUS44 KLIX 191001
RWRLIX
NEW ORLEANS REGIONAL WEATHER ROUNDUP
NATIONAL WEATHER SERVICE NEW ORLEANS LA
500 AM CDT FRI SEP 19 2014

NOTE: "FAIR" INDICATES FEW OR NO CLOUDS BELOW 12,000 FEET WITH NO
      SIGNIFICANT WEATHER AND/OR OBSTRUCTIONS TO VISIBILITY.
      SKY/WX - SKY CONDITION AND SIGNIFICANT WEATHER.
      TMP - AIR TEMPERATURE.     DP    - DEWPOINT TEMPERATURE.
      RH  - RELATIVE HUMIDITY.   PRES  - PRESSURE.
      HI  - HEAT INDEX.          WCI   - WIND CHILL INDEX.

*  THESE STATIONS ARE NOT NWS OR FAA STATIONS AND ARE NOT UNDER
   NWS QUALITY CONTROL.

LAZ038-040-048-061>063-065>067-069-191100-
SOUTHEAST LOUISIANA

CITY           SKY/WX    TMP DP  RH WIND       PRES   REMARKS
N.O. AUDUBON     N/A     76  73  90 MISG        N/A
N.O. INTL ARPT CLOUDY    75  68  78 SE3       29.91S
N.O. LAKEFRONT CLOUDY    74  71  91 SE7       29.91S
N.O. DOWNTOWN* CLOUDY    75  66  73 CALM      29.91S
SLIDELL        CLOUDY    72  70  93 N3        29.91R
BATON ROUGE    MOCLDY    72  70  93 NE5       29.91R
BOOTHVILLE     LGT RAIN  75  70  84 E17       29.92R
BELLE CHASSE   LGT RAIN  75  70  84 SE6       29.90S
BOGALUSA*        N/A     73  69  88 CALM      29.93F FOG
GALLIANO*      NOT AVBL
NEW ROADS*     CLOUDY    71  70  97 E3        29.92R
GONZALES*      CLOUDY    73  73 100 CALM      29.89S
HAMMOND*       NOT AVBL
HOUMA*         CLOUDY    73  67  79 NE3       29.90S
PORT FOURCHON* NOT AVBL

$$

MSZ070-080>082-191100-
SOUTHERN MISSISSIPPI

CITY           SKY/WX    TMP DP  RH WIND       PRES   REMARKS
MCCOMB         MOCLDY    70  68  93 NW3       29.93S FOG
GULFPORT       CLOUDY    72  69  90 CALM      29.91R
BILOXI         CLOUDY    72  69  91 NE5       29.92R
PASCAGOULA     CLOUDY    71  70  96 N5        29.92R

$$

COASTAL OBSERVATIONS
LAKE AND NEARSHORE STATIONS

STATION/POSITION TIME  TEMP    WIND        PRES    WAVE
                       AIR SEA DIR/SP/G            HT/PER
                 (UTC) (F)     (DEG/KT/KT) (MB)    (FT/S)
PASCAGOULA       0900   72      30/  3/  5 1012.2
WAVELAND YACHT   0900   74      40/  6/ 10 1012.1
GRAND ISLE       0900   73 86  100/ 12/ 18 1013.0
SOUTHWEST PASS   0900   76 90   80/ 15/ 17 1012.5
NEW CANAL        0900   74 82  160/  2/  3 1013.1
SHELL BEACH      0900   75 80  120/ 14/ 17 1012.3

OFFSHORE STATIONS

STATION/POSITION TIME  TEMP    WIND        PRES    WAVE
                       AIR SEA DIR/SP/G            HT/PER
                 (UTC) (F)     (DEG/KT/KT) (MB)    (FT/S)
64 S DAUPHIN ISL 0944   76 84   60/ 14/ 17 1013.3    2/ 4

$$




USA.gov is the U.S. government's official web portal to all federal, state and local government web resources and services.